TimeCDT,TemperatureF,Dew PointF,Humidity,Sea Level PressureIn,VisibilityMPH,Wind Direction,Wind SpeedMPH,Gust SpeedMPH,PrecipitationIn,Events,Conditions,WindDirDegrees,DateUTC
12:14 AM,66.2,62.6,88,29.96,10.0,Calm,Calm,-,N/A,,Clear,0,2013-08-27 05:14:00
12:33 AM,66.2,62.6,88,29.96,10.0,Calm,Calm,-,N/A,,Clear,0,2013-08-27 05:33:00
12:53 AM,64.4,60.8,88,29.96,10.0,Calm,Calm,-,N/A,,Clear,0,2013-08-27 05:53:00
1:13 AM,64.4,60.8,88,29.94,7.0,Calm,Calm,-,N/A,,Clear,0,2013-08-27 06:13:00
1:34 AM,64.4,60.8,88,29.93,10.0,Calm,Calm,-,N/A,,Clear,0,2013-08-27 06:34:00
1:53 AM,64.4,60.8,88,29.92,10.0,Calm,Calm,-,N/A,,Clear,0,2013-08-27 06:53:00
2:13 AM,66.2,60.8,83,29.92,10.0,North,3.5,-,N/A,,Clear,360,2013-08-27 07:13:00
2:34 AM,64.4,60.8,88,29.93,10.0,Calm,Calm,-,N/A,,Scattered Clouds,0,2013-08-27 07:34:00
2:53 AM,64.4,60.8,88,29.91,10.0,NE,4.6,-,N/A,,Scattered Clouds,40,2013-08-27 07:53:00
3:13 AM,64.4,60.8,88,29.91,10.0,Calm,Calm,-,N/A,,Clear,0,2013-08-27 08:13:00
3:34 AM,66.2,60.8,83,29.91,10.0,Calm,Calm,-,N/A,,Clear,0,2013-08-27 08:34:00
3:54 AM,64.4,60.8,88,29.91,10.0,Calm,Calm,-,N/A,,Clear,0,2013-08-27 08:54:00
4:13 AM,64.4,60.8,88,29.91,10.0,Calm,Calm,-,N/A,,Clear,0,2013-08-27 09:13:00
4:34 AM,64.4,60.8,88,29.91,10.0,Calm,Calm,-,N/A,,Clear,0,2013-08-27 09:34:00
4:53 AM,62.6,60.8,94,29.90,7.0,Calm,Calm,-,N/A,,Clear,0,2013-08-27 09:53:00
5:13 AM,62.6,59.0,88,29.91,5.0,Calm,Calm,-,N/A,,Clear,0,2013-08-27 10:13:00
5:33 AM,62.6,59.0,88,29.92,10.0,Calm,Calm,-,N/A,,Clear,0,2013-08-27 10:33:00
5:53 AM,62.6,59.0,88,29.91,7.0,WNW,4.6,-,N/A,,Clear,290,2013-08-27 10:53:00
6:13 AM,62.6,59.0,88,29.92,10.0,ENE,3.5,-,N/A,,Clear,70,2013-08-27 11:13:00
6:33 AM,62.6,59.0,88,29.91,7.0,NNE,3.5,-,N/A,,Clear,20,2013-08-27 11:33:00
6:54 AM,62.6,59.0,88,29.92,10.0,North,3.5,-,N/A,,Clear,10,2013-08-27 11:54:00
7:13 AM,64.4,60.8,88,29.93,10.0,North,4.6,-,N/A,,Clear,350,2013-08-27 12:13:00
7:33 AM,66.2,60.8,83,29.93,10.0,North,5.8,-,N/A,,Clear,350,2013-08-27 12:33:00
7:53 AM,68.0,62.6,83,29.93,10.0,North,6.9,-,N/A,,Clear,350,2013-08-27 12:53:00
8:14 AM,69.8,62.6,78,29.93,10.0,NNE,5.8,-,N/A,,Clear,30,2013-08-27 13:14:00
8:33 AM,69.8,64.4,83,29.93,10.0,NNE,4.6,-,N/A,,Scattered Clouds,30,2013-08-27 13:33:00
8:53 AM,71.6,64.4,78,29.93,10.0,NNE,5.8,-,N/A,,Clear,30,2013-08-27 13:53:00
9:14 AM,73.4,64.4,73,29.93,10.0,NNE,4.6,-,N/A,,Clear,30,2013-08-27 14:14:00
9:33 AM,75.2,64.4,69,29.93,10.0,ENE,6.9,-,N/A,,Clear,60,2013-08-27 14:33:00
9:53 AM,75.2,64.4,69,29.93,10.0,East,3.5,-,N/A,,Clear,90,2013-08-27 14:53:00
10:14 AM,77.0,64.4,65,29.93,10.0,ENE,3.5,-,N/A,,Clear,70,2013-08-27 15:14:00
10:33 AM,78.8,66.2,65,29.93,10.0,Calm,Calm,-,N/A,,Clear,0,2013-08-27 15:33:00
10:54 AM,78.8,64.4,61,29.93,10.0,East,3.5,-,N/A,,Scattered Clouds,80,2013-08-27 15:54:00
11:13 AM,78.8,64.4,61,29.93,10.0,SSE,4.6,-,N/A,,Clear,160,2013-08-27 16:13:00
11:34 AM,80.6,64.4,58,29.94,10.0,South,4.6,-,N/A,,Clear,180,2013-08-27 16:34:00
11:53 AM,80.6,64.4,58,29.93,10.0,South,3.5,-,N/A,,Clear,180,2013-08-27 16:53:00
12:13 PM,80.6,64.4,58,29.93,10.0,SE,4.6,-,N/A,,Scattered Clouds,130,2013-08-27 17:13:00
12:33 PM,80.6,64.4,58,29.93,10.0,South,5.8,-,N/A,,Clear,180,2013-08-27 17:33:00
12:53 PM,80.6,64.4,58,-9999,10.0,SSE,8.1,-,N/A,,Clear,150,2013-08-27 17:53:00
1:13 PM,80.6,64.4,58,29.93,10.0,SSE,6.9,-,N/A,,Clear,160,2013-08-27 18:13:00
1:34 PM,80.6,64.4,58,29.92,10.0,SE,8.1,-,N/A,,Clear,140,2013-08-27 18:34:00
1:53 PM,78.8,64.4,61,29.92,10.0,SE,6.9,-,N/A,,Clear,130,2013-08-27 18:53:00
2:13 PM,80.6,64.4,58,29.92,10.0,SSE,4.6,-,N/A,,Clear,150,2013-08-27 19:13:00
2:34 PM,80.6,64.4,58,29.93,10.0,SE,5.8,-,N/A,,Clear,130,2013-08-27 19:34:00
2:53 PM,78.8,64.4,61,29.93,10.0,SE,9.2,-,N/A,,Clear,130,2013-08-27 19:53:00
3:13 PM,78.8,62.6,57,29.93,10.0,SSE,8.1,-,N/A,,Clear,150,2013-08-27 20:13:00
3:34 PM,78.8,62.6,57,29.93,10.0,SE,3.5,-,N/A,,Clear,130,2013-08-27 20:34:00
3:53 PM,78.8,60.8,54,29.93,10.0,East,6.9,-,N/A,,Clear,90,2013-08-27 20:53:00
4:14 PM,78.8,59.0,51,29.94,10.0,SSE,6.9,-,N/A,,Clear,160,2013-08-27 21:14:00
4:33 PM,78.8,57.2,47,29.95,10.0,SSE,4.6,-,N/A,,Clear,150,2013-08-27 21:33:00
4:54 PM,78.8,57.2,47,29.96,10.0,SSE,3.5,-,N/A,,Clear,160,2013-08-27 21:54:00
5:13 PM,78.8,57.2,47,29.96,10.0,SE,4.6,-,N/A,,Clear,130,2013-08-27 22:13:00
5:33 PM,78.8,57.2,47,29.96,10.0,ESE,3.5,-,N/A,,Clear,110,2013-08-27 22:33:00
5:54 PM,77.0,57.2,50,29.96,10.0,Calm,Calm,-,N/A,,Clear,0,2013-08-27 22:54:00
6:13 PM,75.2,57.2,53,29.96,10.0,SSE,3.5,-,N/A,,Clear,150,2013-08-27 23:13:00
6:33 PM,73.4,57.2,57,29.97,10.0,Calm,Calm,-,N/A,,Clear,0,2013-08-27 23:33:00
6:54 PM,71.6,55.4,57,29.96,10.0,Calm,Calm,-,N/A,,Clear,0,2013-08-27 23:54:00
7:13 PM,71.6,55.4,57,29.97,10.0,Calm,Calm,-,N/A,,Clear,0,2013-08-28 00:13:00
7:34 PM,69.8,57.2,64,29.97,10.0,Calm,Calm,-,N/A,,Clear,0,2013-08-28 00:34:00
7:53 PM,66.2,55.4,68,29.97,10.0,Calm,Calm,-,N/A,,Clear,0,2013-08-28 00:53:00
8:13 PM,66.2,55.4,68,29.98,10.0,Calm,Calm,-,N/A,,Clear,0,2013-08-28 01:13:00
8:34 PM,62.6,55.4,77,29.98,10.0,Calm,Calm,-,N/A,,Clear,0,2013-08-28 01:34:00
8:53 PM,62.6,55.4,77,29.99,10.0,Calm,Calm,-,N/A,,Clear,0,2013-08-28 01:53:00
9:13 PM,62.6,55.4,77,29.99,10.0,Calm,Calm,-,N/A,,Clear,0,2013-08-28 02:13:00
9:34 PM,60.8,55.4,82,29.99,10.0,Calm,Calm,-,N/A,,Clear,0,2013-08-28 02:34:00
9:53 PM,60.8,53.6,77,29.99,10.0,Calm,Calm,-,N/A,,Clear,0,2013-08-28 02:53:00
10:13 PM,59.0,53.6,82,29.99,10.0,Calm,Calm,-,N/A,,Clear,0,2013-08-28 03:13:00
10:34 PM,59.0,53.6,82,29.99,10.0,Calm,Calm,-,N/A,,Clear,0,2013-08-28 03:34:00
10:53 PM,59.0,53.6,82,29.99,10.0,Calm,Calm,-,N/A,,Clear,0,2013-08-28 03:53:00
11:13 PM,57.2,51.8,82,30.00,10.0,Calm,Calm,-,N/A,,Clear,0,2013-08-28 04:13:00
11:34 PM,57.2,53.6,88,30.01,10.0,WNW,3.5,-,N/A,,Clear,290,2013-08-28 04:34:00